owner,sensor,date,latitude,longitude,vertical_datum,wind_speed,wind_to_direction,wind_speed_of_gust,qcFlag 
TABS,ioos:station:wmo:42046:1,2004-02-23T15:09:00Z,27.8903,-94.0367,4.0,4.603314024,172.1341605,6.55,'11111222,11111222,11111222' 
TABS,ioos:station:wmo:42046:1,2004-02-23T15:39:00Z,27.8903,-94.0367,4.0,3.172380809,174.9366054,4.92,'11111222,11111222,11111222' 
TABS,ioos:station:wmo:42046:1,2004-02-23T16:09:00Z,27.8903,-94.0367,4.0,2.93743085,193.1848557,4.58,'11111222,11111222,11111222' 
TABS,ioos:station:wmo:42046:1,2004-02-23T16:39:00Z,27.8903,-94.0367,4.0,2.356140913,188.5429804,3.92,'11111222,11111222,11111222' 
TABS,ioos:station:wmo:42046:1,2004-02-23T17:09:00Z,27.8903,-94.0367,4.0,2.431953947,191.8645732,4.58,'11111222,11111222,11111222' 
TABS,ioos:station:wmo:42046:1,2004-02-23T17:39:00Z,27.8903,-94.0367,4.0,2.790788419,186.9978867,4.51,'11111222,11111222,11111222' 
TABS,ioos:station:wmo:42046:1,2004-02-23T18:09:00Z,27.8903,-94.0367,4.0,3.029521414,198.0762755,5.5,'11111222,11111222,11111222' 
TABS,ioos:station:wmo:42046:1,2004-02-23T18:39:00Z,27.8903,-94.0367,4.0,2.75356133,182.9145637,4.8,'11111222,11111222,11111222' 
TABS,ioos:station:wmo:42046:1,2004-02-23T19:09:00Z,27.8903,-94.0367,4.0,2.609291091,184.8367826,5.28,'11111222,11111222,11111222' 
TABS,ioos:station:wmo:42046:1,2004-02-23T19:39:00Z,27.8903,-94.0367,4.0,2.345570293,249.0151512,4.52,'11111222,11111222,11111222' 
TABS,ioos:station:wmo:42046:1,2004-02-23T20:09:00Z,27.8903,-94.0367,4.0,2.061674077,280.0562528,4.71,'11111222,11111222,11111222' 
TABS,ioos:station:wmo:42046:1,2004-02-23T20:39:00Z,27.8903,-94.0367,4.0,3.33928136,299.0212054,5.57,'11111222,11111222,11111222' 
TABS,ioos:station:wmo:42046:1,2004-02-23T21:09:00Z,27.8903,-94.0367,4.0,3.21263132,309.1889285,5.39,'11111222,11111222,11111222' 
TABS,ioos:station:wmo:42046:1,2004-02-23T21:39:00Z,27.8903,-94.0367,4.0,3.066626811,324.2884406,5.37,'11111222,11111222,11111222' 
TABS,ioos:station:wmo:42046:1,2004-02-23T22:09:00Z,27.8903,-94.0367,4.0,3.404717316,331.778883,5.2,'11111222,11111222,11111222' 
TABS,ioos:station:wmo:42046:1,2004-02-23T22:39:00Z,27.8903,-94.0367,4.0,2.418139781,328.873565,4.41,'11111222,11111222,11111222' 
TABS,ioos:station:wmo:42046:1,2004-02-23T23:09:00Z,27.8903,-94.0367,4.0,2.340021367,331.6825166,3.98,'11111222,11111222,11111222' 
TABS,ioos:station:wmo:42046:1,2004-02-23T23:39:00Z,27.8903,-94.0367,4.0,1.442532495,330.057917,3.0,'11111222,11111222,11111222' 
TABS,ioos:station:wmo:42046:1,2004-02-24T00:09:00Z,27.8903,-94.0367,4.0,0.909175451,330.3331437,2.45,'11111222,11111222,11111222' 
TABS,ioos:station:wmo:42046:1,2004-02-24T00:39:00Z,27.8903,-94.0367,4.0,1.967256974,352.4051639,3.49,'11111222,11111222,11111222' 
TABS,ioos:station:wmo:42046:1,2004-02-24T01:09:00Z,27.8903,-94.0367,4.0,2.832137002,335.1540588,4.29,'11111222,11111222,11111222' 
TABS,ioos:station:wmo:42046:1,2004-02-24T01:39:00Z,27.8903,-94.0367,4.0,3.450507209,338.9384843,5.04,'11111222,11111222,11111222' 
TABS,ioos:station:wmo:42046:1,2004-02-24T02:09:00Z,27.8903,-94.0367,4.0,2.141331362,5.896739262,3.62,'11111222,11111222,11111222' 
TABS,ioos:station:wmo:42046:1,2004-02-24T02:39:00Z,27.8903,-94.0367,4.0,2.083122656,32.85062111,3.67,'11111222,11111222,11111222' 
TABS,ioos:station:wmo:42046:1,2004-02-24T03:09:00Z,27.8903,-94.0367,4.0,2.138270329,52.21868826,3.53,'11111222,11111222,11111222' 
TABS,ioos:station:wmo:42046:1,2004-02-24T03:39:00Z,27.8903,-94.0367,4.0,2.704071005,29.2189679,4.07,'11111222,11111222,11111222' 
TABS,ioos:station:wmo:42046:1,2004-02-24T04:09:00Z,27.8903,-94.0367,4.0,2.347189809,21.75581922,3.54,'11111222,11111222,11111222' 
TABS,ioos:station:wmo:42046:1,2004-02-24T04:39:00Z,27.8903,-94.0367,4.0,2.157243612,46.31443553,3.45,'11111222,11111222,11111222' 
TABS,ioos:station:wmo:42046:1,2004-02-24T05:09:00Z,27.8903,-94.0367,4.0,3.357737333,51.28656297,4.86,'11111222,11111222,11111222' 
TABS,ioos:station:wmo:42046:1,2004-02-24T05:39:00Z,27.8903,-94.0367,4.0,4.74605099,20.34384322,6.36,'11111222,11111222,11111222' 
TABS,ioos:station:wmo:42046:1,2004-02-24T06:09:00Z,27.8903,-94.0367,4.0,5.543185005,22.26180663,7.22,'11111222,11111222,11111222' 
TABS,ioos:station:wmo:42046:1,2004-02-24T06:39:00Z,27.8903,-94.0367,4.0,4.975861734,39.12706976,6.67,'11111222,11111222,11111222' 
TABS,ioos:station:wmo:42046:1,2004-02-24T07:09:00Z,27.8903,-94.0367,4.0,4.499422185,43.19852801,5.91,'11111222,11111222,11111222' 
TABS,ioos:station:wmo:42046:1,2004-02-24T07:39:00Z,27.8903,-94.0367,4.0,4.145600077,46.75906562,5.31,'11111222,11111222,11111222' 
TABS,ioos:station:wmo:42046:1,2004-02-24T08:09:00Z,27.8903,-94.0367,4.0,3.988897091,55.31359114,5.49,'11111222,11111222,11111222' 
TABS,ioos:station:wmo:42046:1,2004-02-24T08:39:00Z,27.8903,-94.0367,4.0,3.080259729,37.61365843,4.77,'11111222,11111222,11111222' 
TABS,ioos:station:wmo:42046:1,2004-02-24T09:09:00Z,27.8903,-94.0367,4.0,3.771392316,49.08529154,5.31,'11111222,11111222,11111222' 
TABS,ioos:station:wmo:42046:1,2004-02-24T09:39:00Z,27.8903,-94.0367,4.0,3.42778354,61.41586648,5.74,'11111222,11111222,11111222' 
TABS,ioos:station:wmo:42046:1,2004-02-24T10:09:00Z,27.8903,-94.0367,4.0,4.470178967,36.35690194,6.51,'11111222,11111222,11111222' 
TABS,ioos:station:wmo:42046:1,2004-02-24T10:39:00Z,27.8903,-94.0367,4.0,4.541893878,19.55173899,7.42,'11111222,11111222,11111222' 
TABS,ioos:station:wmo:42046:1,2004-02-24T11:09:00Z,27.8903,-94.0367,4.0,4.578231099,53.70545813,6.1,'11111222,11111222,11111222' 
TABS,ioos:station:wmo:42046:1,2004-02-24T11:39:00Z,27.8903,-94.0367,4.0,4.763402146,50.96415747,7.19,'11111222,11111222,11111222' 
TABS,ioos:station:wmo:42046:1,2004-02-24T12:09:00Z,27.8903,-94.0367,4.0,5.781565532,30.33462355,8.02,'11111222,11111222,11111222' 
TABS,ioos:station:wmo:42046:1,2004-02-24T12:39:00Z,27.8903,-94.0367,4.0,7.747580267,34.69486194,10.09,'11111222,11111222,11111222' 
TABS,ioos:station:wmo:42046:1,2004-02-24T13:09:00Z,27.8903,-94.0367,4.0,7.422802705,32.7905931,10.13,'11111222,11111222,11111222' 
TABS,ioos:station:wmo:42046:1,2004-02-24T13:39:00Z,27.8903,-94.0367,4.0,7.913949709,358.189531,10.74,'11111222,11111222,11111222' 
TABS,ioos:station:wmo:42046:1,2004-02-24T14:09:00Z,27.8903,-94.0367,4.0,7.970225844,14.68111562,10.53,'11111222,11111222,11111222' 
TABS,ioos:station:wmo:42046:1,2004-02-24T14:39:00Z,27.8903,-94.0367,4.0,7.569425341,24.09287631,10.41,'11111222,11111222,11111222' 
TABS,ioos:station:wmo:42046:1,2004-02-24T15:09:00Z,27.8903,-94.0367,4.0,8.635600732,21.03725137,12.2,'11111222,11111222,11111222' 
TABS,ioos:station:wmo:42046:1,2004-02-24T15:39:00Z,27.8903,-94.0367,4.0,8.30316807,32.40739699,11.14,'11111222,11111222,11111222' 
TABS,ioos:station:wmo:42046:1,2004-02-24T16:09:00Z,27.8903,-94.0367,4.0,9.151447973,32.59575374,12.15,'11111222,11111222,11111222' 
TABS,ioos:station:wmo:42046:1,2004-02-24T16:39:00Z,27.8903,-94.0367,4.0,8.020155859,29.50535392,12.06,'11111222,11111222,11111222' 
TABS,ioos:station:wmo:42046:1,2004-02-24T17:09:00Z,27.8903,-94.0367,4.0,7.383359669,33.17322748,9.66,'11111222,11111222,11111222' 
TABS,ioos:station:wmo:42046:1,2004-02-24T17:39:00Z,27.8903,-94.0367,4.0,7.985267685,38.95085766,11.46,'11111222,11111222,11111222' 
TABS,ioos:station:wmo:42046:1,2004-02-24T18:09:00Z,27.8903,-94.0367,4.0,8.229343838,33.1490872,11.98,'11111222,11111222,11111222' 
TABS,ioos:station:wmo:42046:1,2004-02-24T18:39:00Z,27.8903,-94.0367,4.0,8.628615184,40.20485973,12.08,'11111222,11111222,11111222' 
TABS,ioos:station:wmo:42046:1,2004-02-24T19:09:00Z,27.8903,-94.0367,4.0,8.543635058,42.39066847,11.99,'11111222,11111222,11111222' 
TABS,ioos:station:wmo:42046:1,2004-02-24T19:39:00Z,27.8903,-94.0367,4.0,8.730985053,39.46917728,11.73,'11111222,11111222,11111222' 
TABS,ioos:station:wmo:42046:1,2004-02-24T20:09:00Z,27.8903,-94.0367,4.0,9.244035915,38.9402238,12.94,'11111222,11111222,11111222' 
TABS,ioos:station:wmo:42046:1,2004-02-24T20:39:00Z,27.8903,-94.0367,4.0,8.600662765,33.5234902,11.44,'11111222,11111222,11111222' 
TABS,ioos:station:wmo:42046:1,2004-02-24T21:09:00Z,27.8903,-94.0367,4.0,8.336935888,39.20690136,11.25,'11111222,11111222,11111222' 
TABS,ioos:station:wmo:42046:1,2004-02-24T21:39:00Z,27.8903,-94.0367,4.0,6.069761116,24.11557279,10.02,'11111222,11111222,11111222' 
TABS,ioos:station:wmo:42046:1,2004-02-24T22:09:00Z,27.8903,-94.0367,4.0,8.935546989,63.83605445,12.18,'11111222,11111222,11111222' 
TABS,ioos:station:wmo:42046:1,2004-02-24T22:39:00Z,27.8903,-94.0367,4.0,7.700551928,44.63139782,10.88,'11111222,11111222,11111222' 
TABS,ioos:station:wmo:42046:1,2004-02-24T23:09:00Z,27.8903,-94.0367,4.0,8.740572064,44.25803453,12.93,'11111222,11111222,11111222' 
TABS,ioos:station:wmo:42046:1,2004-02-24T23:39:00Z,27.8903,-94.0367,4.0,8.20518129,30.22097133,12.01,'11111222,11111222,11111222' 
TABS,ioos:station:wmo:42046:1,2004-02-25T00:09:00Z,27.8903,-94.0367,4.0,10.95,347.9818057,15.15,'11111222,11111222,11111222' 
TABS,ioos:station:wmo:42046:1,2004-02-25T00:39:00Z,27.8903,-94.0367,4.0,10.56719925,357.8847185,14.25,'11111222,11111222,11111222' 
TABS,ioos:station:wmo:42046:1,2004-02-25T01:09:00Z,27.8903,-94.0367,4.0,11.15004036,0.153947857,14.86,'11111222,11111222,11111222' 
TABS,ioos:station:wmo:42046:1,2004-02-25T01:39:00Z,27.8903,-94.0367,4.0,9.430037116,7.923650695,13.56,'11111222,11111222,11111222' 
TABS,ioos:station:wmo:42046:1,2004-02-25T02:09:00Z,27.8903,-94.0367,4.0,9.068698914,14.49570398,13.58,'11111222,11111222,11111222' 
TABS,ioos:station:wmo:42046:1,2004-02-25T02:39:00Z,27.8903,-94.0367,4.0,8.739576649,10.61539274,13.07,'11111222,11111222,11111222' 
TABS,ioos:station:wmo:42046:1,2004-02-25T03:09:00Z,27.8903,-94.0367,4.0,8.431186156,23.18940264,11.99,'11111222,11111222,11111222' 
TABS,ioos:station:wmo:42046:1,2004-02-25T03:39:00Z,27.8903,-94.0367,4.0,8.555337515,26.89423242,12.83,'11111222,11111222,11111222' 
TABS,ioos:station:wmo:42046:1,2004-02-25T04:09:00Z,27.8903,-94.0367,4.0,7.460060321,37.10001117,10.87,'11111222,11111222,11111222' 
TABS,ioos:station:wmo:42046:1,2004-02-25T04:39:00Z,27.8903,-94.0367,4.0,6.021195895,27.92667707,9.52,'11111222,11111222,11111222' 
TABS,ioos:station:wmo:42046:1,2004-02-25T05:09:00Z,27.8903,-94.0367,4.0,7.676040646,344.587589,10.82,'11111222,11111222,11111222' 
TABS,ioos:station:wmo:42046:1,2004-02-25T05:39:00Z,27.8903,-94.0367,4.0,5.570753988,16.90587288,8.15,'11111222,11111222,11111222' 
TABS,ioos:station:wmo:42046:1,2004-02-25T06:09:00Z,27.8903,-94.0367,4.0,5.523015481,14.79083985,7.62,'11111222,11111222,11111222' 
TABS,ioos:station:wmo:42046:1,2004-02-25T06:39:00Z,27.8903,-94.0367,4.0,6.00300758,358.1860335,8.62,'11111222,11111222,11111222' 
TABS,ioos:station:wmo:42046:1,2004-02-25T07:09:00Z,27.8903,-94.0367,4.0,6.153251173,1.862406135,9.06,'11111222,11111222,11111222' 
TABS,ioos:station:wmo:42046:1,2004-02-25T07:39:00Z,27.8903,-94.0367,4.0,6.426227509,354.8215169,9.48,'11111222,11111222,11111222' 
TABS,ioos:station:wmo:42046:1,2004-02-25T08:09:00Z,27.8903,-94.0367,4.0,4.807036509,350.4199199,7.04,'11111222,11111222,11111222' 
TABS,ioos:station:wmo:42046:1,2004-02-25T08:39:00Z,27.8903,-94.0367,4.0,3.961022595,1.301739169,6.46,'11111222,11111222,11111222' 
TABS,ioos:station:wmo:42046:1,2004-02-25T09:09:00Z,27.8903,-94.0367,4.0,3.432098483,2.003484694,6.04,'11111222,11111222,11111222' 
TABS,ioos:station:wmo:42046:1,2004-02-25T09:39:00Z,27.8903,-94.0367,4.0,1.947434209,330.8023718,3.86,'11111222,11111222,11111222' 
TABS,ioos:station:wmo:42046:1,2004-02-25T10:09:00Z,27.8903,-94.0367,4.0,3.435593107,318.4217458,5.63,'11111222,11111222,11111222' 
TABS,ioos:station:wmo:42046:1,2004-02-25T10:39:00Z,27.8903,-94.0367,4.0,3.401367372,315.5954622,6.3,'11111222,11111222,11111222' 
TABS,ioos:station:wmo:42046:1,2004-02-25T11:09:00Z,27.8903,-94.0367,4.0,4.371269838,285.1171323,7.05,'11111222,11111222,11111222' 
TABS,ioos:station:wmo:42046:1,2004-02-25T11:39:00Z,27.8903,-94.0367,4.0,5.105536211,275.7329129,9.37,'11111222,11111222,11111222' 
TABS,ioos:station:wmo:42046:1,2004-02-25T12:09:00Z,27.8903,-94.0367,4.0,6.626024449,264.0226907,9.26,'11111222,11111222,11111222' 
TABS,ioos:station:wmo:42046:1,2004-02-25T12:39:00Z,27.8903,-94.0367,4.0,7.444897582,264.4502336,10.74,'11111222,11111222,11111222' 
TABS,ioos:station:wmo:42046:1,2004-02-25T13:09:00Z,27.8903,-94.0367,4.0,9.080974617,262.3428337,12.03,'11111222,11111222,11111222' 
TABS,ioos:station:wmo:42046:1,2004-02-25T13:39:00Z,27.8903,-94.0367,4.0,11.06780014,276.7975262,16.23,'11111222,11111222,11111222' 
TABS,ioos:station:wmo:42046:1,2004-02-25T14:09:00Z,27.8903,-94.0367,4.0,10.25893757,274.3044589,13.71,'11111222,11111222,11111222' 
TABS,ioos:station:wmo:42046:1,2004-02-25T14:39:00Z,27.8903,-94.0367,4.0,10.64124053,276.1499057,15.79,'11111222,11111222,11111222' 
TABS,ioos:station:wmo:42046:1,2004-02-25T15:09:00Z,27.8903,-94.0367,4.0,10.52665664,275.3964561,14.67,'11111222,11111222,11111222' 
TABS,ioos:station:wmo:42046:1,2004-02-25T15:39:00Z,27.8903,-94.0367,4.0,10.3804287,281.2774316,14.3,'11111222,11111222,11111222' 
TABS,ioos:station:wmo:42046:1,2004-02-25T16:09:00Z,27.8903,-94.0367,4.0,9.907986677,278.0646587,14.03,'11111222,11111222,11111222' 
TABS,ioos:station:wmo:42046:1,2004-02-25T16:39:00Z,27.8903,-94.0367,4.0,10.18801747,279.0924769,13.62,'11111222,11111222,11111222' 
TABS,ioos:station:wmo:42046:1,2004-02-25T17:09:00Z,27.8903,-94.0367,4.0,10.66887998,274.8929659,14.66,'11111222,11111222,11111222' 
TABS,ioos:station:wmo:42046:1,2004-02-25T17:39:00Z,27.8903,-94.0367,4.0,10.78659353,280.9557193,15.28,'11111222,11111222,11111222' 
TABS,ioos:station:wmo:42046:1,2004-02-25T18:09:00Z,27.8903,-94.0367,4.0,11.61988812,284.0960057,16.25,'11111222,11111222,11111222' 
TABS,ioos:station:wmo:42046:1,2004-02-25T18:39:00Z,27.8903,-94.0367,4.0,11.54452684,277.7159728,16.37,'11111222,11111222,11111222' 
TABS,ioos:station:wmo:42046:1,2004-02-25T19:09:00Z,27.8903,-94.0367,4.0,11.64186411,277.949121,16.55,'11111222,11111222,11111222' 
TABS,ioos:station:wmo:42046:1,2004-02-25T19:39:00Z,27.8903,-94.0367,4.0,11.86971356,284.1415764,17.07,'11111222,11111222,11111222' 
TABS,ioos:station:wmo:42046:1,2004-02-25T20:09:00Z,27.8903,-94.0367,4.0,11.79295552,285.3914401,16.53,'11111222,11111222,11111222' 
TABS,ioos:station:wmo:42046:1,2004-02-25T20:39:00Z,27.8903,-94.0367,4.0,12.32375349,291.0675032,19.0,'11111222,11111222,11111222' 
TABS,ioos:station:wmo:42046:1,2004-02-25T21:09:00Z,27.8903,-94.0367,4.0,12.53440465,286.3095343,18.2,'11111222,11111222,11111222' 
TABS,ioos:station:wmo:42046:1,2004-02-25T21:39:00Z,27.8903,-94.0367,4.0,12.95390675,293.7154318,18.17,'11111222,11111222,11111222' 
TABS,ioos:station:wmo:42046:1,2004-02-25T22:09:00Z,27.8903,-94.0367,4.0,12.8023904,293.2808069,19.61,'11111222,11111222,11111222' 
TABS,ioos:station:wmo:42046:1,2004-02-25T22:39:00Z,27.8903,-94.0367,4.0,13.23217669,299.4709033,19.71,'11111222,11111222,11111222' 
TABS,ioos:station:wmo:42046:1,2004-02-25T23:09:00Z,27.8903,-94.0367,4.0,13.14370572,298.6904097,17.91,'11111222,11111222,11111222' 
TABS,ioos:station:wmo:42046:1,2004-02-25T23:39:00Z,27.8903,-94.0367,4.0,13.6266577,333.2655654,18.4,'11111222,11111222,11111222' 
TABS,ioos:station:wmo:42046:1,2004-02-26T00:09:00Z,27.8903,-94.0367,4.0,13.43289247,331.011539,19.13,'11111222,11111222,11111222' 
TABS,ioos:station:wmo:42046:1,2004-02-26T00:39:00Z,27.8903,-94.0367,4.0,12.81547892,332.2350671,18.37,'11111222,11111222,11111222' 
TABS,ioos:station:wmo:42046:1,2004-02-26T01:09:00Z,27.8903,-94.0367,4.0,12.87124314,329.4101823,18.24,'11111222,11111222,11111222' 
TABS,ioos:station:wmo:42046:1,2004-02-26T01:39:00Z,27.8903,-94.0367,4.0,12.85900852,330.6639491,19.46,'11111222,11111222,11111222' 
TABS,ioos:station:wmo:42046:1,2004-02-26T02:09:00Z,27.8903,-94.0367,4.0,11.84372408,329.1688492,17.02,'11111222,11111222,11111222' 
TABS,ioos:station:wmo:42046:1,2004-02-26T02:39:00Z,27.8903,-94.0367,4.0,11.87384521,330.2609629,17.6,'11111222,11111222,11111222' 
TABS,ioos:station:wmo:42046:1,2004-02-26T03:09:00Z,27.8903,-94.0367,4.0,12.22026186,332.3024571,17.81,'11111222,11111222,11111222' 
TABS,ioos:station:wmo:42046:1,2004-02-26T03:39:00Z,27.8903,-94.0367,4.0,12.32481237,328.3344961,17.58,'11111222,11111222,11111222' 
TABS,ioos:station:wmo:42046:1,2004-02-26T04:09:00Z,27.8903,-94.0367,4.0,12.61174056,333.8411458,19.8,'11111222,11111222,11111222' 
TABS,ioos:station:wmo:42046:1,2004-02-26T04:39:00Z,27.8903,-94.0367,4.0,12.13993822,326.7286786,18.81,'11111222,11111222,11111222' 
TABS,ioos:station:wmo:42046:1,2004-02-26T05:09:00Z,27.8903,-94.0367,4.0,12.06295569,332.500138,17.47,'11111222,11111222,11111222' 
TABS,ioos:station:wmo:42046:1,2004-02-26T05:39:00Z,27.8903,-94.0367,4.0,12.55971735,331.0471634,17.87,'11111222,11111222,11111222' 
TABS,ioos:station:wmo:42046:1,2004-02-26T06:09:00Z,27.8903,-94.0367,4.0,12.18281577,339.4823234,19.04,'11111222,11111222,11111222' 
TABS,ioos:station:wmo:42046:1,2004-02-26T06:39:00Z,27.8903,-94.0367,4.0,12.71562818,335.1680596,18.01,'11111222,11111222,11111222' 
TABS,ioos:station:wmo:42046:1,2004-02-26T07:09:00Z,27.8903,-94.0367,4.0,11.58735949,333.6117066,16.93,'11111222,11111222,11111222' 
TABS,ioos:station:wmo:42046:1,2004-02-26T07:39:00Z,27.8903,-94.0367,4.0,11.96718848,335.6192896,17.96,'11111222,11111222,11111222' 
TABS,ioos:station:wmo:42046:1,2004-02-26T08:09:00Z,27.8903,-94.0367,4.0,11.89394804,337.1428219,16.85,'11111222,11111222,11111222' 
TABS,ioos:station:wmo:42046:1,2004-02-26T08:39:00Z,27.8903,-94.0367,4.0,11.711362,339.0887769,16.69,'11111222,11111222,11111222' 
TABS,ioos:station:wmo:42046:1,2004-02-26T09:09:00Z,27.8903,-94.0367,4.0,11.51687892,338.0229048,17.46,'11111222,11111222,11111222' 
TABS,ioos:station:wmo:42046:1,2004-02-26T09:39:00Z,27.8903,-94.0367,4.0,11.08945896,332.0945257,17.8,'11111222,11111222,11111222' 
TABS,ioos:station:wmo:42046:1,2004-02-26T10:09:00Z,27.8903,-94.0367,4.0,10.73886866,328.1302124,14.86,'11111222,11111222,11111222' 
TABS,ioos:station:wmo:42046:1,2004-02-26T10:39:00Z,27.8903,-94.0367,4.0,10.71528348,333.2674097,17.32,'11111222,11111222,11111222' 
TABS,ioos:station:wmo:42046:1,2004-02-26T11:09:00Z,27.8903,-94.0367,4.0,10.70292016,324.4684179,15.84,'11111222,11111222,11111222' 
TABS,ioos:station:wmo:42046:1,2004-02-26T11:39:00Z,27.8903,-94.0367,4.0,10.84464845,338.355405,16.54,'11111222,11111222,11111222' 
TABS,ioos:station:wmo:42046:1,2004-02-26T12:09:00Z,27.8903,-94.0367,4.0,11.80652362,333.2177726,16.76,'11111222,11111222,11111222' 
TABS,ioos:station:wmo:42046:1,2004-02-26T12:39:00Z,27.8903,-94.0367,4.0,11.70155973,337.4892052,17.67,'11111222,11111222,11111222' 
TABS,ioos:station:wmo:42046:1,2004-02-26T13:09:00Z,27.8903,-94.0367,4.0,11.93618448,333.2630643,16.64,'11111222,11111222,11111222' 
TABS,ioos:station:wmo:42046:1,2004-02-26T13:39:00Z,27.8903,-94.0367,4.0,10.7625694,334.6967199,15.97,'11111222,11111222,11111222' 
TABS,ioos:station:wmo:42046:1,2004-02-26T14:09:00Z,27.8903,-94.0367,4.0,11.37812814,335.2141559,16.25,'11111222,11111222,11111222' 
TABS,ioos:station:wmo:42046:1,2004-02-26T14:39:00Z,27.8903,-94.0367,4.0,11.11130055,336.5033349,15.2,'11111222,11111222,11111222' 
TABS,ioos:station:wmo:42046:1,2004-02-26T15:09:00Z,27.8903,-94.0367,4.0,10.9639637,337.645289,15.81,'11111222,11111222,11111222' 
TABS,ioos:station:wmo:42046:1,2004-02-26T15:39:00Z,27.8903,-94.0367,4.0,11.75051488,334.5469858,17.2,'11111222,11111222,11111222' 
TABS,ioos:station:wmo:42046:1,2004-02-26T16:09:00Z,27.8903,-94.0367,4.0,11.22675821,339.1272121,15.96,'11111222,11111222,11111222' 
TABS,ioos:station:wmo:42046:1,2004-02-26T16:39:00Z,27.8903,-94.0367,4.0,10.57502719,342.0446208,15.19,'11111222,11111222,11111222' 
TABS,ioos:station:wmo:42046:1,2004-02-26T17:09:00Z,27.8903,-94.0367,4.0,10.52350227,337.8951218,15.18,'11111222,11111222,11111222' 
TABS,ioos:station:wmo:42046:1,2004-02-26T17:39:00Z,27.8903,-94.0367,4.0,9.970842492,341.219624,14.47,'11111222,11111222,11111222' 
TABS,ioos:station:wmo:42046:1,2004-02-26T18:09:00Z,27.8903,-94.0367,4.0,10.36139469,336.7504271,14.55,'11111222,11111222,11111222' 
TABS,ioos:station:wmo:42046:1,2004-02-26T18:39:00Z,27.8903,-94.0367,4.0,10.22386424,337.2722061,14.05,'11111222,11111222,11111222' 
TABS,ioos:station:wmo:42046:1,2004-02-26T19:09:00Z,27.8903,-94.0367,4.0,9.915407203,334.1067078,14.34,'11111222,11111222,11111222' 
TABS,ioos:station:wmo:42046:1,2004-02-26T19:39:00Z,27.8903,-94.0367,4.0,9.303558459,341.2532858,14.21,'11111222,11111222,11111222' 
TABS,ioos:station:wmo:42046:1,2004-02-26T20:09:00Z,27.8903,-94.0367,4.0,9.017605004,346.2717827,12.46,'11111222,11111222,11111222' 
TABS,ioos:station:wmo:42046:1,2004-02-26T20:39:00Z,27.8903,-94.0367,4.0,8.576951673,345.1372567,11.96,'11111222,11111222,11111222' 
TABS,ioos:station:wmo:42046:1,2004-02-26T21:09:00Z,27.8903,-94.0367,4.0,8.73043527,335.4309703,13.42,'11111222,11111222,11111222' 
TABS,ioos:station:wmo:42046:1,2004-02-26T21:39:00Z,27.8903,-94.0367,4.0,7.861424807,341.6109785,11.04,'11111222,11111222,11111222' 
TABS,ioos:station:wmo:42046:1,2004-02-26T22:09:00Z,27.8903,-94.0367,4.0,7.722447798,341.1894878,11.37,'11111222,11111222,11111222' 
TABS,ioos:station:wmo:42046:1,2004-02-26T22:39:00Z,27.8903,-94.0367,4.0,7.976998182,337.131348,10.94,'11111222,11111222,11111222' 
TABS,ioos:station:wmo:42046:1,2004-02-26T23:09:00Z,27.8903,-94.0367,4.0,7.682141628,348.2071897,10.94,'11111222,11111222,11111222' 
TABS,ioos:station:wmo:42046:1,2004-02-26T23:39:00Z,27.8903,-94.0367,4.0,7.802999423,347.5665834,11.16,'11111222,11111222,11111222' 
TABS,ioos:station:wmo:42046:1,2004-02-27T00:09:00Z,27.8903,-94.0367,4.0,7.14379451,349.7595297,10.42,'11111222,11111222,11111222' 
TABS,ioos:station:wmo:42046:1,2004-02-27T00:39:00Z,27.8903,-94.0367,4.0,7.070650607,355.6197393,9.76,'11111222,11111222,11111222' 
TABS,ioos:station:wmo:42046:1,2004-02-27T01:09:00Z,27.8903,-94.0367,4.0,6.663347507,346.902084,9.29,'11111222,11111222,11111222' 
TABS,ioos:station:wmo:42046:1,2004-02-27T01:39:00Z,27.8903,-94.0367,4.0,6.084513128,356.0416549,8.7,'11111222,11111222,11111222' 
TABS,ioos:station:wmo:42046:1,2004-02-27T02:09:00Z,27.8903,-94.0367,4.0,5.683836732,5.248964787,8.52,'11111222,11111222,11111222' 
TABS,ioos:station:wmo:42046:1,2004-02-27T02:39:00Z,27.8903,-94.0367,4.0,5.933498125,356.1343374,8.34,'11111222,11111222,11111222' 
TABS,ioos:station:wmo:42046:1,2004-02-27T03:09:00Z,27.8903,-94.0367,4.0,5.631358628,4.991553739,8.89,'11111222,11111222,11111222' 
TABS,ioos:station:wmo:42046:1,2004-02-27T03:39:00Z,27.8903,-94.0367,4.0,5.476659566,2.825617502,8.35,'11111222,11111222,11111222' 
TABS,ioos:station:wmo:42046:1,2004-02-27T04:09:00Z,27.8903,-94.0367,4.0,4.808752437,3.457198831,7.75,'11111222,11111222,11111222' 
TABS,ioos:station:wmo:42046:1,2004-02-27T04:39:00Z,27.8903,-94.0367,4.0,3.638241333,14.64713056,7.01,'11111222,11111222,11111222' 
TABS,ioos:station:wmo:42046:1,2004-02-27T05:09:00Z,27.8903,-94.0367,4.0,5.353503526,20.33031308,7.99,'11111222,11111222,11111222' 
TABS,ioos:station:wmo:42046:1,2004-02-27T05:39:00Z,27.8903,-94.0367,4.0,5.229923518,15.07231118,7.69,'11111222,11111222,11111222' 
TABS,ioos:station:wmo:42046:1,2004-02-27T06:09:00Z,27.8903,-94.0367,4.0,4.840382216,32.77050011,7.29,'11111222,11111222,11111222' 
TABS,ioos:station:wmo:42046:1,2004-02-27T06:39:00Z,27.8903,-94.0367,4.0,4.591524801,20.52657658,7.01,'11111222,11111222,11111222' 
TABS,ioos:station:wmo:42046:1,2004-02-27T07:09:00Z,27.8903,-94.0367,4.0,4.35965595,39.78844064,7.15,'11111222,11111222,11111222' 
TABS,ioos:station:wmo:42046:1,2004-02-27T07:39:00Z,27.8903,-94.0367,4.0,4.780972704,39.48304048,7.09,'11111222,11111222,11111222' 
TABS,ioos:station:wmo:42046:1,2004-02-27T08:09:00Z,27.8903,-94.0367,4.0,3.084234103,53.8357094,6.11,'11111222,11111222,11111222' 
TABS,ioos:station:wmo:42046:1,2004-02-27T08:39:00Z,27.8903,-94.0367,4.0,4.433610267,45.27382406,7.7,'11111222,11111222,11111222' 
TABS,ioos:station:wmo:42046:1,2004-02-27T09:09:00Z,27.8903,-94.0367,4.0,4.322314195,75.25605072,7.62,'11111222,11111222,11111222' 
TABS,ioos:station:wmo:42046:1,2004-02-27T09:39:00Z,27.8903,-94.0367,4.0,5.666127425,69.00567703,8.32,'11111222,11111222,11111222' 